Location: Apeadero de Los Molinos-Guadarrama
(40.7091°N, 4.0689°W)
Time: 11:52:43
(UTC+00:00)

Meteor 1-11 Rocket - Pass Details

Date: 14 May 2021
Orbit: 831 x 916 km, 81.2° (Epoch: 18 June)

Event Time Altitude Azimuth Distance (km) Brightness Sun altitude
Rises 22:05:30 0° 346° (NNW) 3,559 8.1 -23.5°
Reaches altitude 10° 22:08:01 10° 343° (NNW) 2,608 7.2 -23.8°
Maximum altitude 22:13:52 61° 265° (W) 1,019 4.1 -24.4°
Enters shadow 22:15:46 41° 206° (SSW) 1,279 4.3 -24.5°
